Theta_e
292 292 294 295 295 296 296 296 297 297 297 295 295 294 294 294 294 295 295 296 296 297 297 298 298 298 299 298 299 299 300 300 300 302 303 304 304 305 306 308 309 309 310 310 311 312 313 313 313 312 312 312 311 310 309 308 306 305 305 304 304 303 303 302 302 301 301 301 301
292 292 294 296 297 296 296 295 296 296 296 295 295 294 294 294 295 295 295 295 296 297 297 298 297 297 298 298 299 299 299 299 300 301 302 303 303 305 306 307 308 309 310 310 311 312 312 313 312 312 312 311 311 310 309 309 307 306 304 303 303 303 303 302 302 301 301 301 301
292 292 293 293 293 293 294 294 294 294 293 294 294 294 294 294 295 295 296 296 296 296 296 297 297 297 297 297 298 298 299 299 300 300 301 302 303 304 305 307 308 309 310 311 310 311 312 312 312 312 312 311 311 310 309 309 308 306 305 303 303 303 303 303 302 301 301 301 302
292 292 292 292 292 292 292 294 294 293 293 294 294 293 293 294 295 296 295 295 295 295 296 297 297 297 297 298 298 298 299 300 300 300 301 302 303 304 305 306 307 308 309 309 310 310 310 311 312 312 311 311 311 310 310 310 309 307 306 304 304 303 303 303 302 302 301 301 301
292 292 293 293 292 292 293 293 293 293 294 294 294 294 294 294 295 295 295 295 295 296 296 296 296 297 298 298 298 298 298 299 301 301 301 301 302 303 304 305 306 307 308 308 309 309 309 310 311 311 312 311 311 310 310 310 309 308 307 306 305 304 303 303 303 302 302 302 302
292 292 293 293 292 292 293 293 292 293 293 293 293 293 294 295 295 295 295 295 295 295 295 296 297 298 298 298 298 298 298 298 299 300 300 300 301 302 303 305 305 306 307 308 308 308 308 309 310 311 312 311 311 310 310 310 309 309 307 307 306 305 304 303 303 303 302 302 302
292 292 293 293 292 293 293 293 293 293 292 292 292 292 293 294 294 294 294 294 295 295 295 297 297 297 297 297 297 297 297 298 299 299 299 300 301 302 303 304 305 306 306 307 307 307 308 308 310 310 311 312 311 311 310 310 309 309 308 307 306 306 304 303 303 303 302 301 301
292 292 293 293 293 293 292 292 292 292 292 293 293 293 293 293 293 293 293 294 295 295 296 296 295 295 295 296 296 297 297 297 298 298 299 300 300 301 302 303 304 305 305 306 306 307 307 308 310 310 310 311 311 310 310 309 309 308 307 306 307 306 305 304 303 303 302 301 301
293 293 293 293 293 293 292 292 292 292 292 293 293 293 293 293 293 293 294 294 295 296 296 296 295 295 295 295 296 296 296 297 297 297 298 299 300 300 301 302 303 304 305 306 306 306 307 308 309 310 310 310 310 310 310 309 308 307 307 306 306 306 306 305 304 303 302 301 300
293 293 293 293 293 293 293 292 292 292 292 292 292 293 293 295 295 295 295 295 296 296 295 295 295 295 295 295 295 295 296 297 297 297 298 298 299 300 301 302 303 303 304 305 306 306 306 307 308 308 309 310 310 310 310 310 308 307 307 307 306 306 305 305 304 303 302 302 301
293 293 293 293 293 293 293 292 292 292 292 292 292 293 293 295 295 295 295 295 295 294 294 295 295 294 295 295 295 296 296 296 297 297 297 298 299 300 300 301 302 303 304 304 306 306 306 306 307 308 309 309 309 310 310 309 308 307 306 306 306 305 305 305 305 304 302 302 301
293 293 293 293 293 293 292 292 292 293 293 293 293 293 293 293 293 294 294 294 293 294 294 294 294 294 294 295 295 296 296 296 296 296 297 297 298 299 300 301 302 302 303 304 305 306 306 306 307 307 307 308 309 309 309 309 308 307 306 306 305 305 305 305 304 304 303 302 302
293 293 293 293 293 293 292 292 292 293 293 293 293 293 293 294 293 293 293 293 293 294 294 295 295 295 294 295 295 295 296 296 296 296 297 297 298 298 299 300 301 302 303 304 304 305 306 306 306 306 307 307 308 309 309 309 308 308 307 306 305 305 304 304 304 304 304 303 302
293 293 293 293 293 293 293 293 293 293 293 293 293 293 293 293 294 294 293 293 293 294 294 294 295 295 295 295 295 295 296 296 296 296 296 297 297 298 299 299 300 301 302 303 304 305 305 305 306 306 306 307 307 308 308 308 308 308 307 306 305 304 304 304 304 304 304 303 302
293 293 293 293 293 293 293 293 293 294 294 293 293 293 294 294 294 295 294 293 293 294 294 294 295 295 296 295 295 295 295 295 295 295 296 296 297 297 298 299 299 300 301 302 303 304 304 305 305 306 307 307 308 308 308 308 308 308 308 307 306 305 304 304 304 304 303 303 302
293 293 293 293 293 293 293 293 294 294 294 294 294 294 294 294 295 295 294 294 294 294 294 294 294 295 295 295 295 295 295 295 295 295 295 296 296 296 297 298 299 299 300 301 302 303 304 304 305 306 307 308 308 308 308 308 308 308 308 307 307 305 305 305 304 304 304 303 302
292 292 293 292 292 292 293 293 294 294 294 294 295 295 295 295 295 295 295 295 294 294 294 293 294 294 295 295 296 295 295 295 295 295 295 295 296 296 297 297 298 299 300 300 301 302 303 304 305 306 306 307 308 308 308 308 308 308 308 308 307 306 305 305 305 304 304 304 303
292 292 292 292 292 292 292 293 293 294 294 294 294 295 295 295 294 294 295 295 294 294 293 293 294 294 294 294 295 295 295 295 295 295 295 295 296 296 296 297 298 298 299 300 301 302 303 303 304 305 306 307 308 308 308 308 308 308 308 308 307 307 306 306 305 305 304 304 304
292 292 292 292 292 292 293 293 293 293 294 294 294 294 294 294 294 294 294 294 294 294 293 293 294 294 294 294 294 295 295 295 295 295 295 295 296 296 296 297 298 298 299 300 301 301 302 303 304 305 306 307 308 308 308 308 308 308 308 308 307 307 307 306 305 305 305 304 304
292 292 292 292 292 292 293 293 293 293 294 294 294 294 294 294 294 294 294 294 294 294 294 293 293 293 293 293 293 294 294 295 295 295 295 295 296 296 296 297 297 298 299 300 300 301 302 303 305 306 307 307 308 308 308 308 308 308 308 308 307 307 307 306 306 305 305 305 304
292 292 292 292 293 292 293 293 293 293 293 293 293 293 293 294 294 293 293 294 294 293 293 293 293 293 293 293 293 293 294 295 295 295 295 296 296 296 297 298 298 299 299 300 301 302 303 304 306 307 307 308 308 308 307 307 307 307 307 307 307 307 307 306 306 305 305 305 304
293 293 293 293 293 293 293 293 293 293 293 293 293 293 293 293 293 293 293 294 293 293 293 293 293 292 292 293 293 293 294 295 295 295 296 296 297 297 298 300 301 301 302 302 303 303 305 306 307 307 308 308 308 308 308 307 307 307 307 307 307 307 306 306 306 305 305 305 304
294 293 293 293 293 293 294 294 293 293 293 293 293 293 293 293 293 293 293 293 293 293 293 293 293 292 292 293 293 293 293 294 294 295 296 297 298 299 301 302 303 304 304 304 304 305 306 306 307 307 307 307 308 308 307 307 307 307 307 307 307 307 306 306 306 305 305 305 304
294 294 294 294 294 293 293 293 293 292 292 292 292 292 292 292 293 293 293 293 293 292 292 293 293 293 292 293 293 293 294 294 295 296 297 298 300 301 303 305 305 305 305 305 305 305 305 305 306 307 307 308 308 308 308 307 307 307 307 307 307 306 306 306 306 305 305 305 304
294 294 294 294 293 293 293 292 292 292 292 292 292 292 292 292 292 292 292 292 292 292 292 292 292 292 293 293 293 294 295 297 298 299 299 299 300 302 303 304 304 304 304 304 305 306 306 306 305 305 306 307 307 308 308 308 307 307 307 307 306 306 306 306 306 305 305 305 304
295 294 294 293 293 292 292 292 291 291 291 291 292 292 292 292 292 292 292 292 292 292 292 292 292 293 294 294 294 295 297 299 300 300 299 299 299 299 300 301 301 301 302 303 305 306 306 306 306 306 305 305 306 307 307 307 307 307 307 307 306 306 306 305 305 305 305 305 304
294 294 293 293 293 292 291 291 291 291 291 291 291 291 291 292 292 292 292 292 292 292 292 292 292 294 295 294 295 297 298 299 299 298 297 296 296 296 297 297 298 299 300 303 304 305 306 306 306 307 306 306 306 306 306 306 306 306 307 307 306 306 306 305 305 305 305 305 304
293 293 293 293 292 292 291 291 291 291 291 291 291 291 291 291 291 291 291 291 292 292 293 293 294 294 294 295 296 297 297 296 294 294 294 294 294 294 294 295 295 297 299 302 303 304 305 306 307 307 307 307 306 306 306 306 306 306 306 306 306 306 306 305 305 305 305 304 304
292 292 292 292 292 292 292 292 291 291 291 291 291 292 292 291 291 291 292 292 293 293 294 294 295 294 294 294 295 294 294 293 293 293 293 293 293 293 294 294 295 297 300 302 303 304 305 306 307 307 308 308 307 306 306 307 306 306 306 306 306 306 306 306 305 305 305 304 303
292 292 292 292 292 292 292 292 292 292 292 292 292 292 291 291 292 292 293 294 294 294 294 294 294 294 293 293 293 292 292 292 293 293 293 292 292 293 294 295 295 296 299 302 303 304 304 305 307 307 308 308 308 307 307 307 306 306 306 306 306 306 306 306 305 305 304 304 303
292 292 292 292 292 292 292 292 292 292 292 292 292 292 292 292 293 293 294 294 294 294 295 294 293 293 292 292 292 292 292 292 292 292 292 292 293 294 294 294 294 296 298 301 302 303 304 305 306 307 308 308 307 307 307 307 307 306 306 306 306 306 306 306 305 305 304 303 302
292 292 292 292 292 292 292 292 292 293 293 293 293 293 293 293 293 293 294 294 294 294 293 292 291 291 291 291 291 291 292 292 292 292 293 293 293 293 293 294 294 295 298 301 302 303 304 305 306 307 308 308 308 307 307 307 306 306 306 306 306 306 306 306 305 304 304 303 302
292 292 292 292 292 292 292 292 293 293 293 293 293 293 293 294 294 294 294 294 294 293 293 292 291 291 291 291 291 291 292 292 293 293 294 294 294 293 293 293 294 296 299 301 302 303 304 306 307 308 309 309 308 307 307 307 306 306 306 306 306 306 306 306 305 304 304 303 302
292 292 292 292 292 292 292 292 293 293 293 293 293 293 293 294 294 294 294 294 294 294 293 293 292 292 292 291 291 292 292 294 294 293 293 293 293 293 293 293 294 296 299 301 303 304 306 307 308 309 309 308 307 307 306 306 306 306 307 306 306 306 306 306 305 304 304 303 302
292 292 292 292 292 292 292 293 292 292 292 292 292 292 292 293 293 293 293 294 294 294 293 293 293 292 292 293 292 292 293 294 293 293 293 293 293 293 293 293 294 297 300 302 303 305 307 308 308 308 307 307 306 306 306 305 306 306 306 306 306 306 306 306 305 304 304 303 303
292 292 292 292 292 292 292 292 292 292 292 292 291 291 291 291 292 292 293 295 294 294 292 292 292 293 293 292 293 293 294 293 293 293 293 293 293 292 292 293 294 297 300 302 303 304 304 305 305 306 306 306 306 305 305 305 306 306 306 306 305 305 305 305 305 304 304 303 302
292 293 292 292 292 292 292 292 292 292 291 291 291 291 291 291 291 292 293 294 293 293 292 293 293 293 292 292 293 293 293 292 293 292 293 293 293 293 293 293 294 296 298 301 302 302 303 304 305 305 306 305 305 304 304 305 305 305 305 305 305 305 305 305 304 304 304 303 302
293 293 293 292 292 292 292 292 292 291 291 291 291 291 291 292 292 292 293 294 293 292 292 293 293 293 292 293 293 292 292 292 292 293 292 292 293 293 293 293 293 295 297 300 301 302 303 304 305 306 305 304 303 303 303 303 303 304 304 304 305 305 305 305 304 304 303 303 304
293 293 293 293 292 292 292 292 292 292 291 291 291 292 292 292 292 292 293 294 293 293 292 292 292 292 292 293 292 292 291 291 292 293 293 292 293 294 294 294 294 295 297 300 301 302 303 304 305 305 305 303 302 301 300 300 301 302 303 304 304 304 304 304 304 303 303 303 306
294 294 293 293 293 292 292 292 292 292 292 292 292 292 292 292 293 293 294 294 293 293 292 292 291 292 292 294 293 292 291 291 291 292 293 293 294 295 296 295 295 295 297 300 301 302 303 304 304 304 304 302 301 300 299 299 299 300 301 302 303 303 303 303 303 302 302 302 305
294 294 293 293 293 293 292 292 292 292 292 292 292 292 292 293 293 294 293 293 293 293 292 292 292 292 292 293 293 292 291 291 292 292 293 294 295 296 296 295 295 295 296 298 300 301 302 303 303 303 303 302 300 300 299 299 299 299 300 301 302 302 302 302 302 302 301 301 303
Wind_Speed
7 7 7 6 6 6 5 5 6 5 5 5 5 5 5 4 5 5 4 4 4 5 5 5 5 6 7 8 10 10 11 11 12 12 13 13 12 12 12 12 11 11 11 11 11 10 10 10 9 8 8 8 7 7 6 6 7 7 8 8 8 8 9 10 10 11 11 12 10
8 8 8 8 8 7 6 5 6 6 6 5 5 5 5 4 5 5 5 4 4 5 5 5 5 6 8 9 10 10 10 11 12 12 12 13 13 13 12 12 11 11 11 11 10 9 8 8 8 7 7 6 6 7 7 7 7 8 9 10 8 7 7 9 10 11 11 12 11
8 8 8 8 7 7 6 6 6 7 6 6 5 5 5 5 5 5 5 5 5 5 5 5 6 6 8 10 10 9 10 10 11 11 12 12 12 13 12 12 12 11 11 10 9 9 8 8 7 6 6 6 7 7 7 7 7 8 9 10 8 7 7 7 8 9 9 9 10
9 8 8 8 8 8 8 7 8 8 8 7 6 6 5 5 5 5 5 5 5 5 5 6 6 7 7 9 10 10 10 11 11 11 11 11 12 12 13 12 12 11 11 10 9 9 9 8 7 6 6 7 8 8 7 7 8 8 8 8 7 7 7 7 7 7 6 7 9
9 9 8 8 9 9 8 7 8 9 8 6 6 5 5 5 5 5 5 5 5 6 6 6 7 7 8 9 10 11 11 12 12 11 11 11 12 12 12 12 12 11 11 10 9 9 9 8 6 5 6 7 7 7 8 8 8 8 7 6 6 6 7 7 7 6 6 7 7
9 9 9 9 9 9 8 7 9 9 8 6 6 7 7 5 5 6 6 6 6 7 8 8 8 8 9 9 10 11 11 11 11 10 10 11 11 11 12 12 12 11 11 10 10 9 8 7 5 5 6 6 7 8 9 9 9 8 8 7 7 6 6 7 7 6 6 7 8
9 9 10 10 10 9 9 9 9 8 8 7 8 8 9 8 7 8 8 7 7 7 7 7 7 8 9 9 10 10 10 10 10 11 11 11 11 11 12 12 12 12 11 10 10 9 8 7 5 5 5 6 6 8 9 9 9 9 8 8 7 6 6 8 6 6 7 9 11
9 10 10 10 10 10 10 10 9 8 8 7 8 9 10 10 9 9 9 8 7 7 7 6 7 8 9 9 10 10 11 11 11 11 11 11 11 12 12 12 12 12 11 11 10 9 8 6 5 5 6 6 6 7 8 9 10 10 10 10 8 7 6 6 6 7 8 10 12
9 9 10 10 10 10 10 10 9 9 9 9 10 10 10 10 10 10 9 8 8 7 7 6 8 9 9 10 10 10 11 11 11 11 11 11 11 11 11 11 11 12 11 10 10 9 8 7 5 5 6 5 6 7 8 9 10 11 11 10 8 8 8 7 8 8 9 11 12
10 10 11 10 10 10 10 10 9 9 9 10 11 11 11 11 11 10 8 8 8 8 7 7 8 9 10 10 10 10 10 10 10 11 11 11 11 11 11 11 11 11 11 11 10 9 8 7 6 6 6 6 8 9 10 10 11 11 11 9 9 10 10 9 10 10 11 11 12
12 12 11 11 11 11 10 10 9 9 9 10 10 10 11 11 10 9 8 7 8 9 9 9 9 10 10 9 9 10 10 10 10 10 11 11 11 11 11 11 12 12 12 12 10 9 7 6 7 8 8 8 9 9 10 11 11 11 11 9 10 11 11 12 11 11 11 11 13
13 12 12 11 11 11 10 10 9 9 9 10 10 10 10 10 9 9 8 8 9 9 9 9 9 9 9 9 9 9 9 10 10 11 11 11 11 11 12 12 12 12 13 12 11 9 7 7 8 9 10 10 8 8 9 11 11 11 11 11 11 11 12 12 12 11 10 11 12
13 13 12 12 12 11 11 10 9 9 9 10 10 10 9 9 9 9 8 9 9 9 9 9 9 9 8 8 8 9 9 10 10 11 11 11 11 11 11 12 12 12 12 12 10 9 8 9 9 10 10 10 9 8 9 11 11 12 12 12 12 12 13 13 13 12 11 11 12
14 13 13 13 12 12 11 11 10 9 9 10 9 9 9 9 9 8 8 8 9 9 9 9 8 8 8 8 9 9 10 10 11 11 11 11 11 11 11 11 12 12 12 11 10 10 10 10 10 11 11 11 10 10 10 10 11 11 12 12 13 13 13 14 13 13 12 13 13
14 14 14 13 12 12 11 11 10 10 9 10 9 9 8 8 8 8 8 8 9 9 8 8 8 8 8 9 9 10 10 11 11 11 11 11 11 11 11 12 12 12 11 11 11 11 11 11 11 11 11 12 11 11 11 11 11 12 12 13 13 13 14 14 14 13 13 14 13
15 14 14 13 13 12 12 11 10 10 10 10 10 10 9 9 8 8 8 8 8 8 8 8 8 8 8 9 9 9 10 10 10 11 11 11 11 11 11 12 12 12 12 12 11 11 11 11 11 11 12 12 12 11 11 11 11 12 13 13 13 13 14 14 14 14 14 14 14
15 15 14 14 14 13 13 12 11 11 11 12 12 11 11 9 8 8 8 9 8 8 8 9 8 8 8 9 9 8 8 9 9 10 10 11 11 11 11 12 12 12 12 12 12 12 12 11 11 11 11 11 11 11 11 11 11 12 12 13 13 14 14 14 14 14 14 14 15
15 15 15 14 14 14 14 14 13 13 13 13 13 12 11 10 10 9 9 9 8 9 9 10 9 9 9 9 9 8 7 9 9 10 10 11 11 11 11 12 12 11 11 11 12 12 12 12 11 11 10 11 11 11 10 10 11 11 12 13 13 13 14 14 14 14 14 14 15
16 16 15 15 15 15 15 15 15 14 14 13 13 12 12 11 11 11 10 10 10 10 10 11 10 10 10 10 10 9 8 8 9 10 11 11 11 11 11 11 11 11 11 11 11 11 12 11 11 11 11 11 11 10 10 10 10 11 12 13 13 13 14 14 14 14 14 14 15
16 16 16 16 15 15 15 15 15 14 14 13 13 12 12 12 12 12 12 12 11 11 11 11 11 11 10 10 10 9 8 8 9 11 11 11 11 11 11 11 11 11 11 11 11 11 11 11 11 11 11 12 11 11 11 10 10 11 11 12 12 13 13 14 14 14 14 15 15
17 17 16 16 16 15 15 14 14 13 13 13 13 13 13 13 13 13 12 12 11 11 11 11 11 11 11 10 9 9 8 8 9 10 11 11 11 10 10 10 10 10 10 10 9 9 10 10 11 11 11 12 12 11 11 10 10 11 12 11 12 12 13 13 14 14 15 15 15
17 17 16 16 15 15 14 14 13 13 13 13 13 14 14 14 13 13 13 12 11 11 11 11 11 11 10 10 9 9 8 8 9 10 10 10 10 9 9 9 9 9 10 9 8 8 8 9 10 10 10 11 11 11 11 11 11 11 12 12 13 13 13 13 14 14 15 15 15
18 17 16 15 15 15 15 14 13 13 13 13 13 13 13 14 13 13 12 12 11 11 11 10 10 10 10 9 9 9 9 9 9 9 9 8 8 8 8 8 8 9 9 8 7 7 7 8 9 10 10 10 11 12 12 12 12 12 12 13 13 13 13 13 14 14 14 14 14
18 17 16 14 14 14 14 14 13 13 13 13 13 13 13 13 13 13 12 12 11 11 11 10 9 9 9 9 9 9 10 10 10 9 8 7 7 7 7 7 7 7 7 6 7 8 9 8 8 8 9 10 10 11 11 12 11 12 12 13 13 13 13 13 14 14 14 15 14
18 17 16 15 15 14 14 14 14 14 14 14 13 13 13 13 13 12 12 12 12 12 11 11 10 9 9 9 9 10 10 10 9 8 7 6 6 6 7 7 7 6 6 7 13 17 18 16 12 10 8 8 9 10 11 11 11 11 11 12 12 13 13 14 14 14 14 15 14
18 17 17 16 15 15 14 14 14 14 14 14 14 13 13 13 13 12 12 12 12 12 11 10 10 9 9 9 10 10 9 8 7 6 6 6 6 6 7 7 7 7 8 11 17 21 23 23 21 17 13 9 9 10 10 10 11 11 11 12 12 12 13 13 13 14 14 14 14
18 17 16 16 15 15 15 14 14 14 14 14 14 14 13 13 12 12 12 12 12 11 10 9 10 10 10 10 11 10 9 6 5 5 6 6 7 7 8 7 7 8 10 15 20 23 25 25 25 23 19 12 10 10 10 10 10 10 11 11 12 12 13 13 14 14 14 14 14
18 17 17 16 16 16 15 14 14 14 14 14 14 14 14 13 13 12 12 11 11 10 10 10 9 8 7 7 9 9 8 6 5 5 6 7 8 8 9 8 8 10 13 19 23 25 26 26 26 25 23 18 12 10 10 10 10 10 10 10 11 12 13 13 13 13 13 13 13
19 18 18 18 18 18 17 17 16 15 15 14 14 14 13 12 12 12 12 12 13 13 12 10 8 6 5 6 7 7 7 6 7 7 7 8 9 9 9 10 10 12 16 22 25 26 26 26 26 26 25 22 14 9 8 8 8 9 9 9 9 10 11 12 11 11 11 12 11
20 20 20 20 20 20 19 18 17 16 15 14 14 13 13 12 13 14 15 15 16 14 12 9 7 7 7 7 6 6 6 7 7 8 8 10 10 11 11 11 11 13 16 22 24 26 27 27 26 26 26 24 18 13 9 8 8 9 9 9 9 9 10 11 12 12 11 10 10
20 20 21 21 21 20 20 19 17 16 15 14 14 14 14 15 15 16 15 14 13 12 10 8 8 8 7 6 6 6 7 8 8 9 9 10 12 12 12 12 13 14 17 22 25 26 27 27 27 26 26 25 19 13 9 9 9 9 9 9 9 10 10 11 12 12 12 11 10
20 21 21 21 21 20 19 18 17 16 16 16 16 15 15 16 15 14 12 10 9 8 8 7 7 8 7 7 6 7 7 8 9 9 10 10 11 12 12 13 13 15 18 23 25 26 27 27 27 26 26 25 19 14 11 10 10 10 11 11 11 11 11 10 10 11 12 12 11
21 21 21 21 21 20 19 19 18 18 18 17 17 16 16 15 13 12 11 9 8 8 8 7 8 8 8 8 7 7 8 9 10 11 11 11 11 12 12 12 12 14 18 23 26 27 27 28 27 26 25 24 19 14 11 10 9 9 10 11 12 12 11 11 11 11 12 12 12
20 20 20 20 20 20 20 19 19 18 18 17 16 15 14 13 12 11 10 8 8 8 8 8 8 8 8 8 8 8 9 10 11 11 11 11 11 12 12 12 11 14 19 24 27 28 28 27 25 24 23 23 17 13 10 10 10 10 10 10 10 10 10 11 12 12 12 12 12
21 21 21 20 20 20 20 19 19 18 18 17 16 15 13 11 11 10 9 8 9 8 8 8 8 8 8 9 8 9 10 12 12 12 12 12 12 13 13 13 13 16 21 25 27 27 26 24 23 23 22 21 15 11 9 11 11 11 10 10 9 9 9 10 11 12 12 13 12
21 21 21 20 20 20 19 19 19 18 18 17 16 14 12 10 9 8 9 10 11 10 8 8 7 7 8 9 9 10 12 13 13 13 13 13 13 13 14 14 15 17 21 25 26 27 26 25 24 24 22 18 12 9 9 10 10 10 9 9 9 9 10 11 11 12 12 12 13
20 20 20 20 20 19 19 18 18 18 18 17 16 15 14 12 10 9 9 10 10 10 9 9 9 9 9 9 10 11 12 11 12 13 14 14 14 14 15 15 15 17 19 23 25 26 26 25 25 24 21 15 10 8 8 8 8 8 8 9 9 9 10 10 11 12 13 13 13
19 19 19 19 19 19 18 18 18 18 17 17 16 15 15 14 11 10 10 11 10 10 10 9 9 9 9 10 11 12 12 11 12 14 14 15 14 15 15 16 15 15 17 20 23 25 25 25 25 23 20 14 11 8 7 7 7 8 8 8 8 8 9 9 9 10 12 14 16
19 19 19 19 19 19 18 18 18 17 17 17 16 15 15 14 12 11 11 11 10 9 9 9 9 9 10 11 12 13 12 12 13 14 15 15 15 16 17 17 16 15 16 19 22 24 25 24 24 23 21 16 12 9 8 7 8 9 10 9 8 8 8 8 8 9 10 14 19
19 19 19 19 19 18 18 18 17 17 16 16 16 16 15 14 13 12 11 10 9 9 10 10 10 11 11 13 13 13 13 13 12 13 15 15 16 18 19 18 16 16 16 19 22 23 24 24 24 24 22 16 12 9 7 7 8 10 10 10 8 7 7 7 7 7 8 11 16
18 18 18 18 18 18 18 18 18 17 16 15 16 15 14 13 12 11 10 8 9 9 10 11 11 11 12 13 13 13 13 14 14 14 15 16 17 18 18 17 16 15 15 17 20 23 24 25 25 25 23 17 12 9 7 7 8 10 11 11 8 6 6 6 6 6 6 8 10
Wind_Direction
284 284 284 284 283 281 279 278 276 274 271 268 269 268 268 268 269 269 268 265 267 269 271 272 274 277 279 280 281 282 285 287 288 289 289 289 289 288 289 288 289 289 289 290 289 285 279 269 262 257 253 250 245 239 235 230 227 225 223 220 219 218 217 218 221 221 220 221 222
284 283 283 284 286 286 285 284 282 279 276 272 271 269 268 267 267 268 267 263 263 265 268 272 274 275 277 277 278 279 281 283 284 286 288 288 288 287 287 286 286 285 285 287 288 288 284 277 268 260 254 250 245 240 235 229 225 225 225 222 221 217 216 218 221 221 221 222 224
282 283 284 284 284 285 284 285 283 281 278 277 274 271 269 267 266 266 266 263 263 264 268 273 273 274 275 276 277 277 278 279 281 283 284 286 286 286 286 285 283 282 282 282 284 285 285 283 277 268 258 250 244 240 236 229 223 224 225 224 221 218 217 220 221 220 219 222 223
281 281 281 281 279 278 278 280 282 281 279 278 276 273 269 265 264 264 265 266 268 268 268 269 272 274 276 277 278 277 277 277 278 280 281 283 284 284 283 282 281 279 278 276 277 278 279 281 279 273 263 254 248 243 237 230 224 224 225 224 221 219 220 222 220 218 216 221 223
280 279 278 279 277 276 276 276 277 278 278 278 279 278 274 269 267 266 267 270 269 268 267 268 271 273 275 276 276 277 277 278 278 279 280 281 281 282 282 281 279 277 275 273 271 270 272 273 274 271 265 259 252 246 240 234 229 227 227 226 223 222 222 224 222 218 216 219 222
279 279 279 279 278 277 277 276 274 273 274 276 276 275 275 272 271 270 270 270 271 271 271 271 272 273 274 274 275 276 277 278 279 279 279 280 281 281 281 280 279 277 275 272 269 267 266 266 267 266 263 260 255 249 243 237 233 231 230 229 226 224 223 226 224 221 218 220 222
277 279 280 280 279 278 277 276 275 274 274 274 272 270 269 268 268 268 269 270 273 275 275 274 273 272 273 274 275 277 277 279 279 278 278 279 279 280 280 279 279 278 275 272 269 267 264 261 262 262 260 258 255 249 243 237 234 231 229 228 225 223 222 225 226 224 222 222 222
277 278 279 280 280 279 277 275 274 274 274 273 270 267 266 265 266 267 269 272 274 274 275 276 273 271 270 272 274 276 277 278 278 278 277 277 277 278 278 279 279 277 275 272 269 266 262 258 257 257 257 257 256 251 243 236 233 231 229 228 226 222 219 221 224 226 227 226 224
281 281 281 282 280 279 276 273 271 270 270 269 267 266 265 265 265 267 269 271 272 273 274 276 274 272 271 270 272 274 275 276 277 277 276 276 276 277 278 279 279 278 276 273 269 265 261 258 256 255 254 254 255 253 247 238 234 232 230 229 228 225 222 219 221 225 228 229 228
283 283 284 285 282 280 277 274 270 267 265 265 264 264 264 265 265 265 266 268 271 273 273 273 273 272 272 270 271 272 272 273 274 275 275 275 275 275 276 278 278 278 277 275 271 266 262 258 256 255 254 253 254 255 252 245 238 233 230 229 228 226 224 221 220 222 226 230 230
282 282 283 283 282 281 280 277 274 270 267 265 264 262 262 263 264 264 264 266 269 270 270 269 270 270 269 269 268 268 269 270 271 272 272 273 273 273 274 274 275 275 275 274 272 268 264 259 257 256 255 254 254 254 253 250 243 237 232 231 228 227 226 224 221 221 223 228 231
281 281 281 280 281 281 280 278 276 273 270 267 265 263 262 261 260 260 261 261 263 264 265 265 264 264 264 265 265 266 268 268 269 270 270 270 271 271 272 272 273 273 273 272 270 268 263 257 256 255 256 255 254 254 254 253 248 242 236 232 229 228 227 226 223 221 222 225 230
281 281 280 280 280 280 278 277 275 273 270 267 264 263 262 261 258 257 257 257 258 261 263 263 261 260 260 261 263 265 266 267 267 268 268 269 269 270 270 271 271 271 271 270 268 264 260 256 253 253 254 255 255 254 255 255 252 247 241 235 231 230 229 228 225 223 222 223 227
280 280 279 279 279 278 277 276 275 273 270 267 264 262 261 261 259 257 255 254 255 259 262 264 262 261 259 259 261 263 265 267 267 267 267 268 268 268 268 269 268 268 269 269 266 262 257 254 252 251 252 254 254 255 255 255 254 251 245 239 235 232 231 230 227 224 223 223 226
280 279 279 278 277 276 275 274 274 273 271 268 266 264 263 264 262 260 258 257 257 258 262 264 264 263 261 260 262 263 265 267 267 267 267 267 267 267 266 266 266 266 266 266 265 261 256 252 250 250 251 252 253 253 254 254 254 252 249 244 239 235 233 231 228 225 223 222 225
281 280 279 278 276 275 274 273 273 273 272 271 270 270 270 270 268 267 264 262 261 262 262 262 263 264 265 264 263 263 264 266 266 266 267 267 267 266 265 265 266 265 265 265 264 261 257 253 250 249 249 250 251 251 251 251 253 253 251 248 242 238 234 232 228 226 223 222 223
281 279 278 277 275 273 272 271 272 272 273 273 274 274 274 273 272 270 267 265 264 264 263 262 263 265 267 269 268 267 266 266 266 266 266 267 267 267 267 267 267 266 266 265 264 262 259 255 252 249 248 249 249 250 250 251 252 253 252 250 245 240 236 233 229 226 224 222 223
281 279 278 276 274 273 271 271 271 271 272 272 273 273 273 273 272 271 269 267 266 265 265 265 265 266 268 270 270 270 269 268 267 267 267 268 268 268 269 269 269 269 267 266 264 263 261 258 254 251 249 249 249 250 250 251 252 253 253 252 247 242 237 233 230 227 224 223 223
281 280 278 276 273 272 271 271 271 271 271 271 272 272 273 272 272 273 272 271 269 268 267 269 269 270 270 270 270 270 269 268 269 270 270 270 270 270 271 271 272 271 269 267 265 263 261 259 256 254 252 251 251 251 251 252 253 254 254 253 249 243 238 234 230 227 225 223 223
282 280 278 275 273 272 271 270 270 270 270 271 272 272 273 273 273 273 273 273 272 270 270 270 271 272 272 271 270 269 268 269 271 272 273 273 273 273 273 273 274 273 272 269 266 264 262 260 259 257 254 253 252 252 252 254 255 256 256 255 250 244 239 234 231 229 227 225 223
282 280 277 275 274 272 271 270 269 269 269 270 271 272 273 273 274 273 272 272 272 271 270 270 270 271 271 270 268 267 266 269 270 272 272 274 273 272 272 273 275 276 274 270 267 265 264 264 263 261 259 256 255 253 253 254 256 257 257 256 251 245 239 235 232 230 228 227 224
282 280 278 276 274 272 271 270 270 269 269 270 271 273 274 275 275 274 273 272 272 270 269 268 268 267 266 264 264 265 267 270 270 269 269 270 270 271 273 275 278 278 276 272 271 271 272 271 270 268 266 263 260 257 255 255 257 257 257 256 253 247 240 235 232 230 229 228 225
282 281 279 278 276 275 274 273 273 272 272 272 274 274 275 275 275 274 273 272 271 269 267 266 265 263 261 260 261 265 269 272 270 266 264 263 267 271 275 279 280 280 278 278 280 283 282 279 276 273 270 267 263 260 258 256 255 255 255 255 252 247 241 235 232 230 229 228 225
283 283 282 281 280 279 278 277 277 276 275 274 274 274 274 274 274 273 272 271 269 267 265 265 263 261 261 262 264 267 268 268 265 263 260 259 264 271 278 283 283 283 284 288 294 294 291 285 279 274 270 266 265 263 260 257 257 256 255 254 252 248 242 236 231 229 228 227 224
286 286 285 284 283 282 280 279 278 277 275 275 274 274 273 273 272 271 270 269 267 265 264 263 262 262 264 267 268 267 264 260 257 258 260 264 272 279 285 290 290 288 288 290 293 293 292 290 287 280 272 267 266 265 263 262 262 261 259 255 253 249 244 238 232 228 226 225 223
290 289 288 286 284 282 279 277 276 275 275 274 273 272 271 270 269 268 267 266 265 263 262 262 262 264 267 270 271 268 262 254 254 259 269 278 284 289 292 293 294 292 290 290 291 291 291 289 287 284 279 272 267 264 263 262 262 261 260 257 254 250 246 240 233 228 225 224 221
293 291 288 286 283 280 277 275 275 274 273 273 272 270 269 267 266 265 264 264 263 262 261 261 262 265 268 271 270 267 262 256 260 270 278 284 288 291 292 291 291 290 289 290 290 289 288 287 285 284 282 277 271 266 264 262 261 260 259 258 254 249 245 240 235 230 226 223 220
295 292 289 287 284 281 279 277 276 274 273 271 269 268 267 265 263 262 262 261 261 262 263 264 264 265 266 268 267 264 262 263 270 276 280 283 285 287 288 288 287 286 287 289 289 288 286 284 283 282 280 279 275 270 265 262 259 259 260 260 254 248 244 240 236 232 227 223 219
296 294 292 290 287 285 283 282 279 277 275 273 271 269 267 265 262 261 261 262 264 266 268 269 268 267 264 264 265 266 269 273 277 279 281 283 284 284 284 284 283 284 285 287 287 286 284 282 280 279 279 279 277 272 263 259 256 258 260 261 253 247 242 240 237 232 227 222 217
296 295 294 292 291 289 287 286 284 282 280 278 276 274 270 268 267 267 268 269 271 272 273 273 271 269 266 265 267 271 274 277 280 282 284 285 285 284 283 283 283 283 285 286 285 284 282 279 277 276 276 277 277 274 268 261 258 258 259 259 252 246 241 240 236 232 226 219 213
295 294 294 293 292 290 289 287 286 284 282 280 279 277 275 275 275 275 275 276 277 277 277 275 273 271 269 267 268 271 274 277 280 282 283 283 284 284 284 283 283 283 284 285 284 282 280 277 275 274 274 275 275 273 269 264 261 260 260 260 255 247 241 239 234 229 222 214 206
292 292 292 291 291 290 289 288 286 284 282 280 279 279 279 279 280 280 281 281 281 282 281 279 277 275 273 271 270 270 272 276 278 279 280 280 281 281 282 282 282 282 283 283 281 279 277 274 272 271 272 273 273 272 269 266 264 263 263 264 259 251 241 234 232 226 219 210 202
291 290 290 289 289 289 288 288 286 284 283 281 280 280 279 280 280 281 281 281 282 281 280 278 277 276 276 276 274 274 274 275 276 277 277 278 278 279 279 280 280 281 281 281 280 278 275 272 270 270 271 273 274 274 271 268 266 263 262 262 260 252 241 232 229 224 217 209 202
290 289 288 287 287 287 287 287 286 285 284 282 280 278 277 276 276 275 275 275 274 273 272 272 273 274 275 275 275 275 276 277 277 278 278 279 278 278 278 278 277 279 280 281 280 278 275 273 274 275 277 278 278 276 272 267 264 262 260 261 260 252 241 230 226 221 216 208 202
289 288 287 286 286 286 286 286 286 285 285 283 281 278 275 271 270 268 268 269 270 270 270 270 272 273 274 274 273 274 276 278 280 280 281 280 279 278 277 276 275 278 280 281 282 283 284 285 286 286 285 283 280 277 272 268 265 263 262 263 260 252 239 230 224 219 214 208 202
289 288 287 286 285 285 285 285 285 284 283 283 282 280 277 272 268 266 267 270 272 273 273 273 274 274 274 274 273 274 275 278 280 281 281 280 279 278 276 275 275 277 279 281 284 287 289 291 290 288 285 283 279 274 271 269 267 266 265 264 262 253 241 230 223 217 212 206 201
289 288 286 285 285 284 283 283 282 282 281 281 281 281 279 276 272 270 269 271 272 273 273 273 273 273 273 273 274 274 274 274 276 278 278 278 277 276 276 275 275 275 277 279 282 283 285 285 284 283 282 282 278 275 272 272 272 272 270 268 264 254 242 231 223 216 210 204 200
289 287 286 285 283 283 282 281 280 279 278 278 278 278 278 277 276 274 272 271 270 270 270 270 269 269 269 270 271 272 271 270 271 273 274 274 273 273 274 274 273 272 273 275 277 278 279 279 279 280 281 284 285 285 285 285 284 282 279 276 270 256 241 230 221 214 209 204 201
288 286 285 283 282 281 280 279 278 277 276 276 276 276 276 275 275 273 272 270 268 268 268 267 265 264 264 265 268 269 269 267 268 269 271 271 271 271 272 273 272 271 270 271 273 275 276 277 278 280 283 284 286 288 290 289 287 285 283 281 276 261 243 229 220 213 208 205 202
287 285 284 282 281 280 279 278 276 275 275 274 274 273 273 272 272 271 271 270 269 268 268 267 264 262 262 265 267 268 268 267 265 265 267 268 270 271 273 274 273 273 272 273 275 276 277 279 280 281 282 281 281 281 282 282 281 280 279 278 273 260 242 226 217 210 205 203 202
285 284 283 281 280 279 278 277 276 275 274 272 272 271 270 270 269 269 268 268 267 267 268 268 265 263 262 263 266 267 268 267 265 264 265 267 269 271 273 274 274 274 274 274 275 277 277 278 278 278 277 275 274 272 272 272 273 273 273 273 267 254 236 220 212 206 200 198 200